050730 945  1.1-  0.8+    050912 204  0.0   0.1+    051124 D88  0.2-  0.4+  

050731 H06  0.6+  0.0     050913 A30  0.1+  0.2-    051124 D88  0.0   0.8-  

050731 H06  0.7+  0.0     050913 A30  0.1-  0.4-    051124 442  1.6+  0.2-  

050801 I77  0.0   0.2-    050913 A30  0.2-  0.1-    051126 939  0.7+  0.1-  

050801 I77  0.0   0.4+    050913 A32  0.1+  0.1-    051126 939  0.7+  0.1-  

050801 I77  0.1-  0.0     050913 J97  0.2+  0.0     051126 939  1.0+  0.3-  

050801 349  0.9-  0.3+    050913 A32  0.0   0.3+    051126 J97  0.2+  0.4-  

050801 349  1.1-  0.6+    050913 A32  0.0   0.3+    051126 442  1.0+  0.1+  

050801 349  0.7-  0.3+    050913 A32  0.1+  0.1+    051127 349  0.1-  1.0-  

050802 A11  0.4+  0.8+    050913 A32  0.0   0.2+    051127 349  0.2+  0.9-  

050802 A11  0.6+  0.8+    050914 213  0.2+  0.7+    051127 349  0.1+  1.0-  

050802 A11  0.6+  0.7+    050914 213  0.3+  0.5+    051128 442  0.4+  0.4+  

050802 H45  0.0   0.4-    050914 213  0.2+  0.5+    051128 442  0.2+  0.5+  

050802 H45  0.3-  0.5-    050915 704 (1.4+ 10.7-)   051130 442  0.5+  0.8+  

050802 H45  0.3-  0.6-    050915 704 (0.6+  7.5-)   051130 442  0.4-  1.2+  

050802 H45  0.3+  0.6-    050915 704 (1.0+ 10.1-)   051201 442  0.5+  0.3+  

050803 945  0.7-  0.8+    050915 704 (1.4+ 10.3-)   051201 442  0.0   0.1+  

050803 945  0.4-  0.9+    050915 704 (1.0- 10.7-)   051203 442  0.2+  0.3+  

050803 945  0.0   0.5+    050916 704 (1.2+  8.2-)   051203 939 (2.7+  0.5+) 

050803 945  0.5-  0.9+    050916 704 (0.3+ 11.1-)   051203 939  1.4+  0.2+  

050803 A11  1.0+  0.8+    050916 704 (0.6+  8.7-)   051203 939  0.4+  0.0   

050803 A11  0.2+  1.1+    050916 704 (0.7+  8.2-)   051205 939  0.7+  0.2-  

050803 A11  0.6+  0.8+    050916 704 (0.3- 13.6-)   051205 939  0.3+  0.1+  

050803 A11  1.3+  0.8+    050917 349  0.4+  0.0     051205 939  0.3+  0.2+  

050803 A11  0.7+  1.0+    050917 349  0.2+  0.1-    051205 442  0.6+  0.5+  

050803 A11  1.5+  0.5+    050917 349  0.3+  0.2+    051206 442  0.4+  1.3-  

050803 213  0.2+  0.1+    050918 349  0.1+  0.2+    051206 442 (2.0-  1.6-) 

050803 213  0.8+  0.4+    050918 349  0.0   0.1+    051208 442  0.0   1.5+  

050803 213  0.7+  0.6+    050918 349  0.7-  0.0     051209 939  1.3+  0.7-  

050803 213  0.7+  0.6+    050918 048  0.9-  0.5-    051209 939  0.3+  0.1-  

050803 445  1.8+  1.3-    050918 048  0.1+  0.3-    051209 939  0.3-  0.1+  

050803 445  0.3+  0.6-    050918 048  0.1+  0.3-    051210 704  0.7-  0.4-  

050803 445 (1.0+  2.2-)   050918 048  0.4-  0.5-    051210 704  1.0-  0.9+  

050804 939  0.7-  0.3-    050918 048  0.1-  0.1-    051210 704  0.1+  1.3+  

050804 939  0.9-  0.3-    050918 240  0.2-  0.3-    051210 704  0.6+  0.3-  

050804 130  0.2+  0.2-    050918 240  0.0   0.4-    051210 704  1.2+  0.0   

050804 130  0.1+  0.3-    050918 240  0.0   0.2-    051210 349  1.9+  1.3+  

050804 939  1.0-  0.3-    050918 240  0.0   0.1-    051210 349  1.9+  0.5+  

050804 130  0.1+  0.3-    050918 240  0.1+  0.1+    051210 232  0.1-  0.0   

050804 130  0.0   0.3-    050918 J97  0.0   0.1-    051210 232  0.3+  0.0   

050804 H07  1.2-  0.8-    050920 143  0.1-  0.2-    051210 232  0.7+  0.4-  

050804 H07 (2.1-  0.3-)   050920 143  0.0   0.5-    051211 442  0.2+  1.4+  

050804 H07  1.7-  0.9-    050920 143  0.2+  0.7-    051212 118  0.1+  0.4-  

050804 844  0.6-  0.5-    050920 143  0.1-  0.6-    051212 118  0.6+  0.2-  

050804 H07  1.0-  0.8-    050920 143  0.0   0.6-    051212 118  0.4+  0.0   

050804 844  0.5-  0.1-    050920 143  0.0   0.4-    051216 442  1.0+  0.7+  

050804 844  0.5-  0.2-    050920 A32  0.3-  0.2-    051217 349 (2.6+  0.6-) 

050804 844  0.8-  0.5-    050920 A32  0.0   0.6-    051217 349 (2.2+  0.6-) 

050804 844  0.7-  0.4-    050920 A32  0.2-  0.1-    051217 349 (2.3+  0.4-) 

050804 349  0.1-  0.5-    050920 A32  0.1-  0.2-    051222 568  0.7-  0.1-  

050804 349  0.2-  0.2-    050921 J97  0.2+  0.3-    051222 568  0.8-  0.1-  

050804 349  0.1-  0.1-    050921 048  0.6+  0.2+    051222 568  0.8-  0.1-  



NAKANO

         **** Don't distribute anyone except personal use only ****

                (C) Copyright 2006 OAA/ComputingSection

write mail from CFAD0::NAKANO on 2006-01-01 05:09:23(JST).

 



    C/2005 A1 - B (LINEAR)

Epoch 2005 Apr. 20.0 TT = JDT 2453480.5  

T 2005 Apr. 10.22375 TT                                 Nakano

q   0.9068596            (2000.0)            P               Q

z  -0.0005987      Peri.  271.86122     +0.01358066     +0.99747564

 +/-0.0000016      Node   355.85988     +0.14320455     -0.07092685

e   1.0005429      Incl.   74.88689     -0.98959993     +0.00342495

From 792 observations 2005 Jan. 14-Dec. 22, mean residual 0".69.

   Nongravitational parameters A1 = +3.44 +/- 0.06, A2 = +0.8846 +/- 0.0211.

   (1/a)org.= +0.000129, (1/a)fut.= -0.000628 (+/-0.000002), Q= 7.

Residuals in seconds of arc 

2004/                     050707 J76  0.7+  0.5+    050906 A39  0.0   0.4+  

041209 704 (1.1-  3.6+)   050707 J76  0.2+  1.0+    050906 A39  0.1-  0.5+  

041209 704 (0.4-  3.7+)   050707 J76  0.1-  1.1+    050906 A39  0.1+  0.4+  

041209 704 (0.5-  3.9+)   050707 J76  0.2+  1.1+    050906 A39  0.1+  0.3+  

041209 704 (0.9-  4.8+)   050709 J87  1.1+  0.1+    050906 048  1.1-  0.1+  

041209 704 (1.3-  4.1+)   050709 J87  0.8+  0.1-    050906 048  1.0-  0.9-  

041209 703 (0.1-  2.7+)   050709 J87  1.4+  0.7-    050906 048  0.1-  0.3-  

041209 703 (0.4-  2.7+)   050711 H06  0.6-  0.1+    050906 048  0.6+  0.2+  

041209 703 (0.2-  2.5+)   050711 H06  0.5+  0.1-    050906 048  0.2-  0.2+  

041209 703 (0.1+  2.6+)   050712 J76  0.8+  0.8+    050907 048  0.0   0.1+  

041215 704 (0.5-  4.0+)   050712 J76  0.8+  0.4+    050907 048  0.2+  0.2+  

041215 704 (0.6-  4.0+)   050712 J76  0.9+  0.1+    050907 048  0.0   0.5+  

041215 704 (1.0-  4.3+)   050716 213  0.1+  0.4+    050907 048  0.9+  0.1+  

041215 704 (0.5-  4.0+)   050716 213  1.0+  0.5+    050907 048  0.8+  0.2+  

041215 704 (0.9-  4.0+)   050716 213  0.7+  0.4+    050907 945 (2.7-  0.0 ) 

2005/                     050717 349  0.9-  1.9+    050908 945  1.2-  0.6+  

050113 704 (4.2-  4.9+)   050717 349  1.5-  1.5+    050908 945  1.2-  0.9-  

050113 704 (4.4-  5.1+)   050717 349 (0.9-  2.4+)   050908 A46  1.0-  0.1-  

050113 704 (4.0-  4.5+)   050720 673  1.1+  0.4+    050908 A46  0.4+  0.3-  

050113 704 (3.5-  4.8+)   050720 673  1.5+  0.4+    050908 A46  1.2-  0.0   

050113 704 (4.8-  3.9+)   050720 673  1.3+  0.7+    050908 A46  0.1-  0.1-  

050114 I77  0.4-  0.8+    050720 673  1.3+  0.6+    050908 A46  0.1+  0.4-  

050114 I77  0.1-  0.4+    050721 213  0.1-  0.4+    050908 A46  0.5-  0.2-  

050114 I77  0.2-  0.6+    050721 213  0.1-  0.3+    050909 939  0.1+  0.2-  

050114 H06  0.1-  0.6+    050721 213  1.5-  1.8-    050909 939  0.1-  0.1+  

050114 H06  0.4-  1.1+    050721 349  0.0   0.0     050909 939  0.3-  0.0   

050114 H06  0.8-  0.4+    050721 349  0.2+  0.6+    050909 232  0.9+  0.5+  

050114 H06  0.3-  0.9+    050721 349  0.3-  0.6+    050909 232  1.2-  1.1+  

050114 H06  0.3+  0.1+    050722 673  1.7+  0.4+    050909 232 (1.7-  2.4+) 

050114 H06  0.7-  0.9+    050722 673  1.8+  0.3+    050911 J97 (5.5+  0.6-) 

050114 673  0.9+  0.2+    050722 673  1.6+  0.2+    050911 J97 (4.8+  0.2-) 

050114 673  0.3+  1.1+    050722 673  1.9+  0.1+    050912 D88  0.5+  0.8-  

050114 673  0.8+  0.9+    050730 939  0.1-  0.5+    050912 D88  0.6-  0.4+  

050114 673  0.6+  0.4+    050730 939  0.4-  1.2+    050912 D88  0.4+  0.3+  

050114 673  0.6+  1.0+    050730 939  0.1+  1.3+    050912 204  0.0   0.4+  

050114 673  1.3+  0.1+    050730 945  0.6-  1.3+    050912 204  0.2+  0.4+  

050115 213  0.6+  1.1+    050730 945  0.2-  1.7+    050913 A32  0.0   0.2-  

050115 213  0.3-  1.5+    050731 H06  0.7+  0.2-    050913 J97  0.4+  0.8-  

050115 213  0.4-  1.2+    050731 H06  1.0+  0.3-    050913 A32  0.1+  0.5-  

050115 H06  0.6-  1.0+    050801 349  1.3-  0.2+    050913 A32  0.2-  0.2-  

050115 H06  0.7-  1.2+    050801 349  1.6-  0.6+    050913 A32  0.2-  0.1+  

050115 704 (4.2-  3.9+)   050801 349  0.9-  0.7+    050913 A32  0.1+  0.7+  

050115 704 (5.0-  4.5+)   050803 945  0.6-  0.8+    050914 213  0.1+  0.6+  

050115 H06  0.4-  0.7+    050803 945  0.5-  0.7+    050914 213  0.0   0.5+  

050115 704 (3.9-  3.8+)   050803 945  0.4-  0.6+    050914 213  0.1+  0.7+  

050115 704 (3.7-  4.2+)   050803 945  0.4-  0.7+    050917 349  0.0   0.5+  

050115 704 (5.2-  3.4+)   050803 213  0.4+  0.8+    050917 349  0.1+  0.4+  

050115 673  0.7+  0.6+    050803 213  0.6+  0.5+    050917 349  0.1-  0.8+  

050115 673  0.7+  0.6+    050804 939  1.3-  0.2-    050918 349  0.4+  0.2-  

050115 673  0.7+  0.6+    050804 939  1.3-  0.3+    050918 349  0.5+  0.3-  

050115 673  0.8+  0.4+    050804 130  0.3+  0.0     050918 349  0.1-  0.2-  

050115 372  0.6-  1.8+    050804 130  0.3+  0.2-    050918 048  0.8+  0.9+  

050115 372  0.4-  1.9+    050804 939  0.8-  0.9+    050918 048  1.6+  0.2+  

050115 372  0.4-  1.2+    050804 130  0.6+  0.2-    050918 048  0.6+  0.1-  

050115 372  0.6-  0.7+    050804 130  0.5+  0.0     050918 048  0.5+  1.1+  

050115 372  0.6-  1.6+    050804 349  0.6-  0.1+    050918 048  1.1+  0.5+  

050116 844  0.6-  0.8+    050804 349  0.6-  0.2+    050918 J97  0.1+  0.1-  

050116 844  0.2+  1.1-    050804 349  0.5-  1.0+    050920 143  0.1-  0.5-  

050116 844  0.5-  1.0+    050805 945 (0.9-  2.8+)   050920 143  0.1+  0.4-  

050116 844  0.9-  1.1+    050805 945  1.0-  0.7+    050920 143  0.3+  0.4-  

050116 704 (4.4-  5.1+)   050805 945  0.9-  0.4+    050920 143  0.1+  0.7-  

050116 H06  0.6-  0.7+    050805 945  2.1-  1.1+    050920 143  0.1-  0.7-  

050116 704 (5.3-  5.1+)   050805 170  0.7+  0.1+    050920 143  0.1-  0.8-  

050116 H06  0.6-  0.8+    050805 170  1.0+  0.0     050921 J97  0.2-  0.2-  

050116 704 (4.9-  4.7+)   050805 170  0.8+  0.0     050921 048  0.7-  0.3+  

